User: anonymous   Login
Location: Brede
(50.9167°N, 0.6000°E)
Time: 15:38:59
(UTC+00:00)
Language:

Tiros 1 despin weight - Orbit

View from above orbital plane
View from above orbital plane
View from above satellite
View from above satellite

Ground track
Ground track

The orbit data is extracted from the following two-line orbital elements,

1   115U 60002D   21132.43973877  .00000013  00000-0  28553-4 0  9993
2   115  48.1653 132.0771 0035267 259.5483 100.1455 14.83761332261829
Epoch (UTC): 12 May 2021 10:33:13
Eccentricity: 0.0035267
inclination: 48.1653°
perigee height: 593 km
apogee height: 642 km
right ascension of ascending node: 132.0771°
argument of perigee: 259.5483°
revolutions per day: 14.83761332
mean anomaly at epoch: 100.1455°
orbit number at epoch: 26182

The dashed part of the orbit path shows where the satellite is in the earth's shadow,  

DLR